STARLINK-32156, 60278

Orbit data source: Space-Track

STARLINK-32156, 60278 is a payload satellite owned by SpaceX/Seattle (US) in LEO that was launched on Sun, 28 Jul 2024 UTC via an FALCON 9 launch vehicle from the Air Force Eastern Test Range (AFETR). Payload-class satellites include a variety of spacecraft equipped with specific instruments for various scientific and technological missions. These include communications satellites like Starlink; space stations such as the ISS; scientific satellites like the Hubble; Earth observation satellites from companies like Planet Labs, Umbra, and HawkEye 360; GPS; miniature CubeSats for education and research; and military/defense satellites.

Loading next visibility...
Identifier
60278, 2024-132A
Orbit
LEO
Last TLE update
5 hours ago
Origin
Manufacturer
SpaceX/Seattle
Mission
Operational spacecraft
Bus & Motor
STARLINK V2M, Unknown motor
Mass
730 kg wet, ~700 kg dry
Launch date (UTC)
2024-07-28 (11 months ago)
Launch vehicle
FALCON 9
Launch site
Air Force Eastern Test Range (AFETR)
Object type
Payload
Rocket body
Debris
Shape & HBR
Unknown
Radar Cross Section
Large (>1 m²)

Expand to show TLE details & history

TLE from 5 hours ago
0 STARLINK-32156
1 60278U 24132A   25190.14402627 -.00001991  00000-0 -55133-4 0  9991
2 60278  53.1594 103.5947 0001211  89.9774 270.1365 15.30189904 54272
Epoch: 2025-07-09T03:27Z
TLE epoch observation values (Epoch: 2025-07-09T03:27:23.869Z)
Latitude
-0.00008°
Longitude
124.41631°
Altitude
476.143 km
Speed
7.629 km/s
True Right ascension
06h 54m 22s
True Declination
0° 00' 00"
Sunlit
Object was in daylight at epoch
Visualization orbit readout
Latitude
47.03148°
Longitude
-109.70688°
Altitude
479.63 km
Speed
7.632 km/s
Apparent Right ascension
11h 57m 35s
Apparent Declination
8° 17' 51"
Sunlit
Object is in daylight
Visualization observer readout
Local Sidereal Time
20:49:03
Azimuth
306.803° NW
Elevation
-25.069°
Doppler factor
1
Orbital elements
Apogee altitude
476.332 km
Perigee altitude
474.672 km
Semi-major axis
6,853.639 km
Eccentricity
0.00012
Inclination
53.1594°
RAAN
103.5947°
Arg. of periapsis
89.9774°
True anomaly
Unknown
Mean anomaly
270.1365°
Eccentric anomaly
Unknown
Mean motion
3.82526 °/min
Orbital period
94.11 mins
BSTAR
-0.000055133
Loading maneuver chart data...
Loading SW <> Apogee altitude chart data...
Loading historical data...
Loading historical data...
Loading historical data...
Loading historical data...
Loading historical data...
Loading historical data...
Loading historical data...

STARLINK-32156 Visibility forecast

Observer location: undefined°, undefined°

Span
Click to sort rows by Start time (UTC) header in descending order
Start Az.
Max El. time (UTC)
Max El. Az.
Max El.
End time (UTC)
End Az.
6 mins2025-07-09 20:52:21.680Z222.695° SW2025-07-09 20:55:21.680Z172.208° S43.666°2025-07-09 20:58:21.680Z54.124° ENE
4 mins2025-07-09 22:32:21.680Z305.244° NW2025-07-09 22:33:21.680Z325.759° NNW18.575°2025-07-09 22:36:21.680Z23.098° NE
5 mins2025-07-10 03:28:21.680Z320.96° NNW2025-07-10 03:30:21.680Z13.938° NNE41.02°2025-07-10 03:33:21.680Z116.76° SE
|